| time (UTC) | temp F | wind direction | speed knots | gust knots | rain 1hr in | rain 24hr in | rain mn in | humidity % | barometer mb |
| 20260906113649 | 73 | 152 | 0.9 | 0.9 | 0.00 | 0.01 | 0.01 | 95 | 1011.6 |
| 20260906113144 | 73 | 146 | 0.0 | 0.9 | 0.00 | 0.01 | 0.01 | 95 | 1011.8 |
| 20260906112643 | 73 | 166 | 0.9 | 0.9 | 0.00 | 0.01 | 0.01 | 95 | 1011.8 |
| 20260906112140 | 73 | 57 | 0.0 | 0.9 | 0.00 | 0.01 | 0.01 | 95 | 1011.5 |
| 20260906111639 | 73 | 157 | 0.0 | 0.9 | 0.00 | 0.01 | 0.01 | 95 | 1011.4 |
| 20260906111134 | 73 | 164 | 0.9 | 0.9 | 0.00 | 0.01 | 0.01 | 95 | 1011.4 |
| 20260906110629 | 73 | 176 | 0.9 | 0.9 | 0.00 | 0.01 | 0.01 | 95 | 1011.3 |
| 20260906110124 | 73 | 117 | 0.9 | 0.9 | 0.00 | 0.01 | 0.01 | 95 | 1011.3 |
| 20260906105618 | 73 | 176 | 0.9 | 0.9 | 0.00 | 0.01 | 0.01 | 95 | 1011.0 |
| 20260906105115 | 73 | 173 | 0.0 | 0.0 | 0.00 | 0.01 | 0.01 | 95 | 1011.2 |
| 20260906104614 | 73 | 163 | 0.0 | 0.0 | 0.00 | 0.01 | 0.01 | 95 | 1011.1 |
| 20260906104108 | 73 | 116 | 0.9 | 1.7 | 0.00 | 0.01 | 0.01 | 95 | 1011.1 |
| 20260906103606 | 73 | 169 | 0.9 | 0.9 | 0.00 | 0.01 | 0.01 | 95 | 1011.1 |
| 20260906103102 | 73 | 113 | 0.9 | 0.9 | 0.00 | 0.01 | 0.01 | 95 | 1010.9 |
| 20260906102602 | 73 | 147 | 0.9 | 0.9 | 0.00 | 0.01 | 0.01 | 95 | 1011.1 |
| 20260906102056 | 73 | 177 | 0.0 | 0.0 | 0.00 | 0.01 | 0.01 | 95 | 1011.0 |
| 20260906101551 | 73 | 154 | 0.0 | 0.9 | 0.00 | 0.01 | 0.01 | 95 | 1011.1 |
| 20260906101045 | 73 | 179 | 0.0 | 0.0 | 0.00 | 0.01 | 0.01 | 95 | 1010.9 |
| 20260906100541 | 73 | 146 | 0.9 | 0.9 | 0.00 | 0.01 | 0.01 | 95 | 1010.6 |
| 20260906100042 | 73 | 120 | 0.9 | 1.7 | 0.00 | 0.01 | 0.01 | 95 | 1010.9 |
| 20260906095536 | 73 | 177 | 0.0 | 0.0 | 0.00 | 0.01 | 0.01 | 95 | 1010.5 |
| 20260906095032 | 73 | 158 | 0.0 | 0.0 | 0.00 | 0.01 | 0.01 | 95 | 1010.6 |
| 20260906094530 | 73 | 148 | 0.9 | 0.9 | 0.00 | 0.01 | 0.01 | 95 | 1010.5 |
| 20260906094027 | 73 | 115 | 1.7 | 1.7 | 0.00 | 0.01 | 0.01 | 95 | 1010.5 |
| 20260906093522 | 73 | 146 | 0.9 | 0.9 | 0.00 | 0.01 | 0.01 | 95 | 1010.3 |
| 20260906093022 | 73 | 111 | 0.9 | 0.9 | 0.00 | 0.01 | 0.01 | 95 | 1010.2 |
| 20260906092517 | 73 | 170 | 0.0 | 0.0 | 0.00 | 0.01 | 0.01 | 95 | 1010.6 |
| 20260906092012 | 73 | 148 | 0.9 | 0.9 | 0.00 | 0.01 | 0.01 | 95 | 1010.2 |
| 20260906091508 | 73 | 164 | 0.0 | 0.0 | 0.00 | 0.01 | 0.01 | 95 | 1010.2 |
| 20260906091005 | 73 | 177 | 0.0 | 0.0 | 0.00 | 0.01 | 0.01 | 95 | 1010.1 |
| 20260906090504 | 73 | 194 | 0.0 | 0.0 | 0.00 | 0.01 | 0.01 | 95 | 1010.4 |
| 20260906085959 | 73 | 191 | 0.0 | 0.0 | 0.00 | 0.01 | 0.01 | 95 | 1010.4 |
| 20260906085458 | 72 | 173 | 0.0 | 0.0 | 0.00 | 0.01 | 0.01 | 95 | 1009.9 |
| 20260906084957 | 72 | 187 | 0.0 | 0.0 | 0.00 | 0.01 | 0.01 | 95 | 1009.9 |
| 20260906084452 | 72 | 203 | 0.0 | 0.0 | 0.00 | 0.01 | 0.01 | 95 | 1010.2 |
| 20260906083951 | 72 | 203 | 0.0 | 0.0 | 0.00 | 0.01 | 0.01 | 95 | 1010.1 |
| 20260906083447 | 72 | 209 | 0.0 | 0.0 | 0.00 | 0.01 | 0.01 | 95 | 1010.1 |
| 20260906082946 | 72 | 201 | 0.0 | 0.0 | 0.00 | 0.01 | 0.01 | 95 | 1010.3 |
| 20260906082442 | 72 | 211 | 0.9 | 0.9 | 0.00 | 0.01 | 0.01 | 95 | 1010.1 |
| 20260906081937 | 72 | 225 | 0.9 | 0.9 | 0.00 | 0.01 | 0.01 | 95 | 1010.0 |
| 20260906081432 | 71 | 206 | 0.0 | 0.0 | 0.00 | 0.01 | 0.01 | 95 | 1009.7 |
| 20260906080929 | 71 | 207 | 0.0 | 0.0 | 0.00 | 0.01 | 0.01 | 95 | 1009.7 |
| 20260906080425 | 71 | 207 | 0.0 | 0.0 | 0.00 | 0.01 | 0.01 | 95 | 1009.4 |
| 20260906075925 | 71 | 207 | 0.0 | 0.0 | 0.00 | 0.01 | 0.01 | 95 | 1009.6 |
| 20260906075420 | 71 | 207 | 0.0 | 0.0 | 0.00 | 0.01 | 0.01 | 95 | 1009.4 |
| 20260906074915 | 71 | 207 | 0.0 | 0.0 | 0.00 | 0.01 | 0.01 | 95 | 1009.8 |
| 20260906074415 | 71 | 207 | 0.0 | 0.0 | 0.00 | 0.01 | 0.01 | 95 | 1009.5 |
| 20260906073914 | 71 | 207 | 0.0 | 0.0 | 0.00 | 0.01 | 0.01 | 95 | 1009.3 |
| 20260906073408 | 71 | 207 | 0.0 | 0.0 | 0.00 | 0.01 | 0.01 | 95 | 1009.4 |
| 20260906072905 | 72 | 207 | 0.0 | 0.0 | 0.00 | 0.01 | 0.01 | 95 | 1009.5 |
| 20260906072400 | 72 | 207 | 0.0 | 0.0 | 0.00 | 0.01 | 0.01 | 95 | 1009.6 |
| 20260906071856 | 72 | 205 | 0.0 | 0.0 | 0.00 | 0.01 | 0.01 | 95 | 1009.5 |
| 20260906071351 | 72 | 205 | 0.0 | 0.0 | 0.00 | 0.01 | 0.01 | 95 | 1009.5 |
| 20260906070847 | 72 | 210 | 0.0 | 0.0 | 0.00 | 0.01 | 0.01 | 95 | 1009.5 |
| 20260906070343 | 72 | 205 | 0.0 | 0.0 | 0.00 | 0.01 | 0.01 | 95 | 1009.8 |
| 20260906065838 | 72 | 205 | 0.0 | 0.0 | 0.00 | 0.01 | 0.01 | 95 | 1009.5 |
| 20260906065332 | 72 | 205 | 0.0 | 0.0 | 0.00 | 0.01 | 0.01 | 95 | 1009.7 |
| 20260906064828 | 72 | 205 | 0.0 | 0.0 | 0.00 | 0.01 | 0.01 | 95 | 1009.6 |
| 20260906064324 | 72 | 205 | 0.0 | 0.0 | 0.00 | 0.01 | 0.01 | 95 | 1009.7 |
| 20260906063818 | 72 | 205 | 0.0 | 0.0 | 0.00 | 0.01 | 0.01 | 95 | 1009.6 |
| 20260906063314 | 73 | 216 | 0.0 | 0.0 | 0.00 | 0.01 | 0.01 | 95 | 1009.8 |
| 20260906062809 | 72 | 223 | 0.9 | 0.9 | 0.00 | 0.01 | 0.01 | 95 | 1009.8 |
| 20260906062308 | 72 | 209 | 0.0 | 0.0 | 0.00 | 0.01 | 0.01 | 95 | 1009.8 |
| 20260906061804 | 72 | 209 | 0.0 | 0.0 | 0.00 | 0.01 | 0.01 | 95 | 1009.9 |
| 20260906061300 | 72 | 209 | 0.0 | 0.0 | 0.00 | 0.01 | 0.01 | 95 | 1010.0 |
| 20260906060755 | 72 | 209 | 0.0 | 0.0 | 0.00 | 0.01 | 0.01 | 95 | 1009.9 |
| 20260906060253 | 72 | 209 | 0.0 | 0.0 | 0.00 | 0.01 | 0.01 | 95 | 1009.9 |
| 20260906055748 | 73 | 209 | 0.0 | 0.0 | 0.00 | 0.01 | 0.01 | 95 | 1010.1 |
| 20260906055243 | 73 | 209 | 0.0 | 0.0 | 0.00 | 0.01 | 0.01 | 95 | 1010.3 |
| 20260906054738 | 73 | 211 | 0.0 | 0.0 | 0.00 | 0.01 | 0.01 | 95 | 1010.0 |
| 20260906054233 | 72 | 205 | 0.0 | 0.0 | 0.00 | 0.01 | 0.01 | 95 | 1010.1 |
| 20260906053730 | 72 | 205 | 0.0 | 0.0 | 0.00 | 0.01 | 0.01 | 95 | 1010.4 |
| 20260906053226 | 72 | 205 | 0.0 | 0.0 | 0.00 | 0.01 | 0.01 | 95 | 1010.4 |
| 20260906052721 | 73 | 205 | 0.0 | 0.0 | 0.00 | 0.01 | 0.01 | 95 | 1010.4 |
| 20260906052217 | 73 | 206 | 0.0 | 0.0 | 0.00 | 0.01 | 0.01 | 95 | 1010.5 |
| 20260906051714 | 73 | 207 | 0.0 | 0.9 | 0.07 | 0.01 | 0.01 | 95 | 1010.5 |
| 20260906051213 | 73 | 205 | 0.0 | 0.0 | 0.07 | 0.01 | 0.01 | 95 | 1010.4 |
| 20260906050708 | 73 | 205 | 0.0 | 0.0 | 0.00 | 0.00 | 0.00 | 95 | 1010.7 |
| 20260906050203 | 73 | 205 | 0.0 | 0.0 | 0.00 | 0.00 | 0.00 | 95 | 1010.5 |
| 20260906045702 | 73 | 205 | 0.0 | 0.0 | 0.00 | 0.00 | 0.00 | 95 | 1010.4 |
| 20260906045157 | 73 | 206 | 0.0 | 0.0 | 0.00 | 0.00 | 0.00 | 95 | 1010.4 |
| 20260906044653 | 73 | 205 | 0.0 | 0.0 | 0.00 | 0.00 | 0.00 | 95 | 1010.6 |
| 20260906044148 | 73 | 166 | 0.0 | 0.0 | 0.00 | 0.00 | 0.00 | 95 | 1010.7 |
| 20260906043644 | 73 | 168 | 0.0 | 0.0 | 0.00 | 0.00 | 0.00 | 95 | 1010.8 |
| 20260906043140 | 73 | 168 | 0.0 | 0.0 | 0.00 | 0.00 | 0.00 | 95 | 1010.7 |
| 20260906042639 | 73 | 168 | 0.0 | 0.0 | 0.00 | 0.00 | 0.00 | 95 | 1010.8 |
| 20260906042133 | 73 | 168 | 0.0 | 0.0 | 0.00 | 0.00 | 0.00 | 95 | 1010.7 |
| 20260906041629 | 73 | 168 | 0.0 | 0.0 | 0.00 | 0.00 | 0.00 | 95 | 1010.8 |
| 20260906041124 | 73 | 168 | 0.0 | 0.0 | 0.00 | 0.00 | 0.00 | 95 | 1010.9 |
| 20260906040620 | 73 | 168 | 0.0 | 0.0 | 0.00 | 0.00 | 0.00 | 95 | 1010.8 |
| 20260906040115 | 73 | 168 | 0.0 | 0.0 | 0.00 | 0.05 | 0.05 | 95 | 1010.7 |
| 20260906035610 | 73 | 168 | 0.0 | 0.0 | 0.00 | 0.05 | 0.05 | 95 | 1011.0 |
| 20260906035106 | 73 | 168 | 0.0 | 0.0 | 0.00 | 0.05 | 0.05 | 95 | 1011.0 |
| 20260906034606 | 73 | 168 | 0.0 | 0.0 | 0.00 | 0.05 | 0.05 | 95 | 1011.0 |
| 20260906034101 | 73 | 168 | 0.0 | 0.0 | 0.00 | 0.05 | 0.05 | 95 | 1011.0 |
| 20260906033556 | 73 | 168 | 0.0 | 0.0 | 0.00 | 0.05 | 0.05 | 95 | 1010.9 |
| 20260906033051 | 73 | 168 | 0.0 | 0.0 | 0.00 | 0.05 | 0.05 | 95 | 1010.9 |
| 20260906032548 | 73 | 168 | 0.0 | 0.0 | 0.00 | 0.05 | 0.05 | 95 | 1010.9 |
| 20260906032048 | 73 | 168 | 0.0 | 0.0 | 0.00 | 0.05 | 0.05 | 95 | 1011.0 |
| 20260906031543 | 73 | 168 | 0.0 | 0.0 | 0.00 | 0.05 | 0.05 | 95 | 1010.8 |
| 20260906031039 | 73 | 168 | 0.0 | 0.0 | 0.00 | 0.05 | 0.05 | 95 | 1010.7 |
| 20260906030538 | 73 | 168 | 0.0 | 0.0 | 0.00 | 0.05 | 0.05 | 95 | 1010.8 |
| 20260906030037 | 73 | 168 | 0.0 | 0.0 | 0.00 | 0.05 | 0.05 | 95 | 1010.8 |
| 20260906025532 | 73 | 168 | 0.0 | 0.0 | 0.00 | 0.05 | 0.05 | 95 | 1010.7 |
| 20260906025030 | 73 | 168 | 0.0 | 0.0 | 0.00 | 0.05 | 0.05 | 95 | 1010.8 |
| 20260906024526 | 74 | 168 | 0.0 | 0.0 | 0.00 | 0.05 | 0.05 | 95 | 1010.9 |
| 20260906024026 | 74 | 168 | 0.0 | 0.0 | 0.00 | 0.05 | 0.05 | 95 | 1010.8 |
| 20260906023522 | 74 | 168 | 0.0 | 0.0 | 0.00 | 0.05 | 0.05 | 95 | 1011.0 |
| 20260906023017 | 74 | 168 | 0.0 | 0.0 | 0.00 | 0.05 | 0.05 | 95 | 1010.9 |
| 20260906022512 | 74 | 167 | 0.0 | 0.0 | 0.00 | 0.05 | 0.05 | 95 | 1010.9 |
| 20260906022007 | 74 | 167 | 0.0 | 0.0 | 0.00 | 0.05 | 0.05 | 95 | 1010.8 |
| 20260906021502 | 74 | 166 | 0.0 | 0.0 | 0.00 | 0.05 | 0.05 | 95 | 1010.7 |
| 20260906020956 | 74 | 166 | 0.0 | 0.0 | 0.00 | 0.05 | 0.05 | 95 | 1010.5 |
| 20260906020450 | 74 | 167 | 0.0 | 0.0 | 0.00 | 0.05 | 0.05 | 95 | 1010.4 |
| 20260906015950 | 74 | 166 | 0.0 | 0.0 | 0.00 | 0.05 | 0.05 | 95 | 1010.6 |
| 20260906015450 | 74 | 165 | 0.9 | 0.9 | 0.00 | 0.05 | 0.05 | 95 | 1010.5 |
| 20260906014949 | 74 | 176 | 0.0 | 0.0 | 0.00 | 0.05 | 0.05 | 95 | 1010.5 |
| 20260906014449 | 74 | 176 | 0.0 | 0.0 | 0.00 | 0.05 | 0.05 | 95 | 1010.7 |
| 20260906013945 | 74 | 176 | 0.0 | 0.0 | 0.00 | 0.05 | 0.05 | 95 | 1010.3 |
| 20260906013440 | 74 | 176 | 0.0 | 0.0 | 0.00 | 0.05 | 0.05 | 95 | 1010.3 |
| 20260906012936 | 74 | 176 | 0.0 | 0.0 | 0.00 | 0.05 | 0.05 | 95 | 1010.6 |
| 20260906012431 | 74 | 176 | 0.0 | 0.0 | 0.00 | 0.05 | 0.05 | 95 | 1010.3 |
| 20260906011930 | 75 | 176 | 0.0 | 0.0 | 0.00 | 0.05 | 0.05 | 95 | 1010.4 |
| 20260906011426 | 75 | 176 | 0.0 | 0.0 | 0.00 | 0.05 | 0.05 | 95 | 1010.3 |
| 20260906010921 | 75 | 176 | 0.0 | 0.0 | 0.00 | 0.05 | 0.05 | 95 | 1010.6 |
| 20260906010417 | 75 | 176 | 0.0 | 0.0 | 0.00 | 0.05 | 0.05 | 95 | 1009.9 |
| 20260906005913 | 75 | 176 | 0.0 | 0.0 | 0.00 | 0.05 | 0.05 | 95 | 1010.5 |
| 20260906005412 | 75 | 176 | 0.0 | 0.0 | 0.00 | 0.05 | 0.05 | 95 | 1010.3 |
| 20260906004910 | 75 | 176 | 0.0 | 0.0 | 0.00 | 0.05 | 0.05 | 95 | 1010.3 |
| 20260906004405 | 75 | 176 | 0.0 | 0.0 | 0.00 | 0.05 | 0.05 | 95 | 1010.0 |
| 20260906003900 | 75 | 176 | 0.0 | 0.0 | 0.00 | 0.05 | 0.05 | 95 | 1010.0 |
| 20260906003356 | 76 | 176 | 0.0 | 0.0 | 0.00 | 0.05 | 0.05 | 95 | 1010.3 |
| 20260906002851 | 76 | 176 | 0.0 | 0.0 | 0.00 | 0.05 | 0.05 | 95 | 1009.9 |
| 20260906002350 | 76 | 176 | 0.0 | 0.0 | 0.00 | 0.05 | 0.05 | 95 | 1010.0 |
| 20260906001846 | 76 | 176 | 0.0 | 0.0 | 0.00 | 0.05 | 0.05 | 95 | 1009.7 |
| 20260906001342 | 76 | 170 | 0.0 | 0.0 | 0.00 | 0.05 | 0.05 | 95 | 1009.9 |
| 20260906000837 | 76 | 170 | 0.0 | 0.0 | 0.00 | 0.05 | 0.05 | 95 | 1009.8 |
| 20260906000337 | 76 | 170 | 0.0 | 0.0 | 0.00 | 0.05 | 0.05 | 95 | 1009.7 |
| 20260905235836 | 76 | 170 | 0.0 | 0.0 | 0.00 | 0.05 | 0.05 | 95 | 1009.8 |
| 20260905235331 | 76 | 170 | 0.0 | 0.0 | 0.00 | 0.05 | 0.05 | 95 | 1009.5 |
| 20260905234827 | 76 | 170 | 0.0 | 0.0 | 0.00 | 0.05 | 0.05 | 95 | 1009.5 |
| 20260905234322 | 76 | 170 | 0.0 | 0.0 | 0.00 | 0.05 | 0.05 | 95 | 1009.7 |
| 20260905233817 | 76 | 170 | 0.0 | 0.0 | 0.00 | 0.05 | 0.05 | 94 | 1009.6 |
| 20260905233312 | 77 | 169 | 0.0 | 0.0 | 0.00 | 0.05 | 0.05 | 94 | 1009.6 |
| 20260905232811 | 77 | 178 | 0.0 | 0.0 | 0.00 | 0.05 | 0.05 | 94 | 1009.3 |
| 20260905232307 | 77 | 197 | 0.0 | 0.0 | 0.00 | 0.05 | 0.05 | 94 | 1009.1 |
| 20260905231803 | 77 | 197 | 0.0 | 0.0 | 0.00 | 0.05 | 0.05 | 94 | 1009.3 |
| 20260905231257 | 77 | 197 | 0.0 | 0.0 | 0.00 | 0.05 | 0.05 | 93 | 1009.4 |
| 20260905230754 | 77 | 197 | 0.0 | 0.0 | 0.00 | 0.05 | 0.05 | 94 | 1009.1 |
| 20260905230252 | 77 | 197 | 0.0 | 0.0 | 0.00 | 0.05 | 0.05 | 94 | 1008.8 |
| 20260905225751 | 77 | 249 | 0.9 | 1.7 | 0.00 | 0.05 | 0.05 | 95 | 1008.6 |
| 20260905225247 | 77 | 178 | 0.0 | 0.0 | 0.00 | 0.05 | 0.05 | 95 | 1008.3 |
| 20260905224746 | 77 | 178 | 0.0 | 0.0 | 0.00 | 0.05 | 0.05 | 95 | 1008.6 |
| 20260905224242 | 77 | 178 | 0.0 | 0.0 | 0.00 | 0.05 | 0.05 | 95 | 1008.3 |
| 20260905223737 | 77 | 178 | 0.0 | 0.0 | 0.00 | 0.05 | 0.05 | 95 | 1008.2 |
| 20260905223234 | 77 | 179 | 0.0 | 0.0 | 0.00 | 0.05 | 0.05 | 95 | 1008.6 |
| 20260905222729 | 77 | 175 | 0.0 | 0.0 | 0.00 | 0.05 | 0.05 | 95 | 1008.7 |
| 20260905222228 | 77 | 209 | 0.0 | 0.0 | 0.00 | 0.05 | 0.05 | 94 | 1008.8 |
| 20260905221724 | 77 | 211 | 0.9 | 0.9 | 0.00 | 0.05 | 0.05 | 95 | 1009.0 |
| 20260905221221 | 76 | 229 | 0.9 | 0.9 | 0.00 | 0.05 | 0.05 | 95 | 1009.1 |
| 20260905220717 | 76 | 211 | 0.0 | 0.0 | 0.00 | 0.05 | 0.05 | 95 | 1009.2 |
| 20260905220213 | 76 | 211 | 0.0 | 0.0 | 0.00 | 0.05 | 0.05 | 95 | 1009.2 |
| 20260905215712 | 76 | 211 | 0.0 | 0.0 | 0.00 | 0.05 | 0.05 | 95 | 1009.2 |
| 20260905215208 | 75 | 210 | 0.0 | 0.0 | 0.00 | 0.05 | 0.05 | 95 | 1009.2 |
| 20260905214703 | 75 | 210 | 0.0 | 0.0 | 0.00 | 0.05 | 0.05 | 94 | 1008.9 |
| 20260905214159 | 75 | 210 | 0.0 | 0.0 | 0.00 | 0.05 | 0.05 | 94 | 1008.9 |
| 20260905213654 | 75 | 212 | 0.0 | 0.0 | 0.00 | 0.05 | 0.05 | 94 | 1008.9 |
| 20260905213150 | 76 | 207 | 0.9 | 0.9 | 0.00 | 0.05 | 0.05 | 93 | 1008.9 |
| 20260905212645 | 76 | 185 | 0.0 | 0.0 | 0.00 | 0.05 | 0.05 | 92 | 1008.7 |
| 20260905212144 | 76 | 184 | 0.0 | 0.0 | 0.05 | 0.05 | 0.05 | 91 | 1008.7 |
| 20260905211639 | 77 | 185 | 0.0 | 0.0 | 0.05 | 0.05 | 0.05 | 90 | 1008.9 |
| 20260905211134 | 77 | 184 | 0.0 | 0.0 | 0.07 | 0.04 | 0.04 | 87 | 1008.9 |
| 20260905210631 | 78 | 184 | 0.0 | 0.0 | 0.19 | 0.04 | 0.04 | 84 | 1009.0 |
| 20260905210125 | 78 | 182 | 0.0 | 0.0 | 0.12 | 0.02 | 0.02 | 81 | 1009.1 |
| 20260905205624 | 80 | 154 | 0.9 | 0.9 | 0.05 | 0.01 | 0.01 | 79 | 1009.0 |
| 20260905205124 | 81 | 156 | 0.9 | 1.7 | 0.00 | 0.00 | 0.00 | 73 | 1009.1 |
| 20260905204624 | 81 | 173 | 0.0 | 0.9 | 0.00 | 0.00 | 0.00 | 72 | 1009.0 |
| 20260905204119 | 81 | 186 | 0.0 | 0.0 | 0.00 | 0.00 | 0.00 | 72 | 1008.7 |
| 20260905203619 | 81 | 189 | 0.0 | 0.0 | 0.00 | 0.00 | 0.00 | 72 | 1008.9 |
| 20260905203114 | 82 | 111 | 0.9 | 1.7 | 0.00 | 0.00 | 0.00 | 72 | 1008.9 |
| 20260905202610 | 82 | 133 | 1.7 | 1.7 | 0.00 | 0.00 | 0.00 | 71 | 1008.7 |
| 20260905202105 | 82 | 107 | 5.2 | 7.8 | 0.00 | 0.00 | 0.00 | 71 | 1008.6 |
| 20260905201601 | 83 | 97 | 2.6 | 2.6 | 0.00 | 0.00 | 0.00 | 71 | 1009.0 |
| 20260905201100 | 83 | 101 | 1.7 | 1.7 | 0.00 | 0.00 | 0.00 | 70 | 1009.3 |
| 20260905200556 | 84 | 328 | 2.6 | 5.2 | 0.00 | 0.00 | 0.00 | 69 | 1009.0 |
| 20260905200050 | 84 | 308 | 6.1 | 8.7 | 0.00 | 0.00 | 0.00 | 68 | 1008.8 |
| 20260905195544 | 86 | 339 | 1.7 | 1.7 | 0.00 | 0.00 | 0.00 | 67 | 1008.7 |
| 20260905195040 | 88 | 285 | 4.3 | 5.2 | 0.00 | 0.00 | 0.00 | 64 | 1008.9 |
| 20260905194539 | 93 | 46 | 4.3 | 7.8 | 0.00 | 0.00 | 0.00 | 57 | 1008.6 |
| 20260905194038 | 95 | 323 | 3.5 | 4.3 | 0.00 | 0.00 | 0.00 | 51 | 1008.5 |
| 20260905193533 | 95 | 126 | 0.9 | 0.9 | 0.00 | 0.00 | 0.00 | 51 | 1008.4 |
| 20260905193029 | 95 | 223 | 1.7 | 2.6 | 0.00 | 0.00 | 0.00 | 48 | 1008.2 |
| 20260905192524 | 96 | 151 | 0.0 | 0.9 | 0.00 | 0.00 | 0.00 | 46 | 1008.3 |
| 20260905192020 | 96 | 201 | 0.9 | 1.7 | 0.00 | 0.00 | 0.00 | 47 | 1008.2 |
| 20260905191519 | 96 | 236 | 0.9 | 1.7 | 0.00 | 0.00 | 0.00 | 47 | 1008.1 |
| 20260905191018 | 96 | 288 | 2.6 | 4.3 | 0.00 | 0.00 | 0.00 | 45 | 1007.9 |
| 20260905190516 | 96 | 320 | 0.9 | 1.7 | 0.00 | 0.00 | 0.00 | 45 | 1008.2 |
| 20260905190010 | 97 | 305 | 0.9 | 1.7 | 0.00 | 0.00 | 0.00 | 46 | 1008.2 |
| 20260905185504 | 97 | 203 | 0.0 | 0.0 | 0.00 | 0.00 | 0.00 | 46 | 1008.2 |
| 20260905185003 | 97 | 101 | 0.9 | 1.7 | 0.00 | 0.00 | 0.00 | 44 | 1008.2 |
| 20260905184458 | 98 | 0 | 3.5 | 5.2 | 0.00 | 0.00 | 0.00 | 45 | 1008.2 |
| 20260905183957 | 97 | 69 | 0.9 | 1.7 | 0.00 | 0.00 | 0.00 | 45 | 1008.1 |
| 20260905183457 | 98 | 345 | 2.6 | 4.3 | 0.00 | 0.00 | 0.00 | 44 | 1008.3 |
| 20260905182951 | 98 | 235 | 0.9 | 1.7 | 0.00 | 0.00 | 0.00 | 47 | 1008.4 |
| 20260905182451 | 98 | 314 | 2.6 | 2.6 | 0.00 | 0.00 | 0.00 | 47 | 1008.6 |
| 20260905181946 | 97 | 74 | 0.9 | 0.9 | 0.00 | 0.00 | 0.00 | 46 | 1009.0 |
| 20260905181441 | 96 | 206 | 0.0 | 0.9 | 0.00 | 0.00 | 0.00 | 50 | 1008.8 |
| 20260905180940 | 96 | 212 | 0.0 | 0.9 | 0.00 | 0.00 | 0.00 | 49 | 1009.1 |
| 20260905180435 | 95 | 230 | 1.7 | 2.6 | 0.00 | 0.00 | 0.00 | 49 | 1008.9 |
| 20260905175930 | 96 | 63 | 2.6 | 2.6 | 0.00 | 0.00 | 0.00 | 47 | 1009.1 |
| 20260905175429 | 96 | 355 | 2.6 | 4.3 | 0.00 | 0.00 | 0.00 | 46 | 1009.3 |
| 20260905174925 | 97 | 339 | 3.5 | 5.2 | 0.00 | 0.00 | 0.00 | 49 | 1009.6 |
| 20260905174420 | 97 | 99 | 0.9 | 1.7 | 0.00 | 0.00 | 0.00 | 49 | 1009.7 |
| 20260905173916 | 96 | 220 | 0.9 | 1.7 | 0.00 | 0.00 | 0.00 | 51 | 1009.7 |
| 20260905173413 | 95 | 270 | 1.7 | 1.7 | 0.00 | 0.00 | 0.00 | 51 | 1010.0 |
| 20260905172913 | 95 | 241 | 2.6 | 2.6 | 0.00 | 0.00 | 0.00 | 53 | 1009.9 |
| 20260905172410 | 95 | 349 | 1.7 | 1.7 | 0.00 | 0.00 | 0.00 | 54 | 1010.1 |
| 20260905171907 | 96 | 17 | 0.9 | 1.7 | 0.00 | 0.00 | 0.00 | 53 | 1010.2 |
| 20260905171403 | 96 | 197 | 1.7 | 1.7 | 0.00 | 0.00 | 0.00 | 53 | 1010.3 |
| 20260905170859 | 95 | 193 | 0.9 | 0.9 | 0.00 | 0.00 | 0.00 | 53 | 1010.2 |
| 20260905170355 | 94 | 359 | 2.6 | 2.6 | 0.00 | 0.00 | 0.00 | 55 | 1010.4 |
| 20260905165854 | 95 | 242 | 2.6 | 4.3 | 0.00 | 0.00 | 0.00 | 56 | 1010.4 |
| 20260905165349 | 94 | 328 | 2.6 | 4.3 | 0.00 | 0.00 | 0.00 | 55 | 1010.4 |
| 20260905164844 | 95 | 348 | 2.6 | 4.3 | 0.00 | 0.00 | 0.00 | 55 | 1010.6 |
| 20260905164339 | 94 | 220 | 0.9 | 1.7 | 0.00 | 0.00 | 0.00 | 56 | 1010.6 |
| 20260905163835 | 94 | 304 | 2.6 | 2.6 | 0.00 | 0.00 | 0.00 | 58 | 1010.7 |
| 20260905163331 | 93 | 5 | 0.9 | 0.9 | 0.00 | 0.00 | 0.00 | 57 | 1010.8 |
| 20260905162827 | 94 | 241 | 1.7 | 1.7 | 0.00 | 0.00 | 0.00 | 59 | 1010.7 |
| 20260905162326 | 94 | 322 | 1.7 | 2.6 | 0.00 | 0.00 | 0.00 | 57 | 1011.0 |
| 20260905161821 | 93 | 307 | 3.5 | 4.3 | 0.00 | 0.00 | 0.00 | 56 | 1011.0 |
| 20260905161320 | 93 | 211 | 0.0 | 0.0 | 0.00 | 0.00 | 0.00 | 60 | 1010.8 |
| 20260905160818 | 92 | 207 | 0.9 | 0.9 | 0.00 | 0.00 | 0.00 | 61 | 1011.0 |
| 20260905160313 | 93 | 197 | 0.0 | 0.9 | 0.00 | 0.00 | 0.00 | 61 | 1011.3 |
| 20260905155808 | 92 | 1 | 2.6 | 2.6 | 0.00 | 0.00 | 0.00 | 61 | 1011.2 |
| 20260905155307 | 92 | 15 | 2.6 | 2.6 | 0.00 | 0.00 | 0.00 | 62 | 1011.3 |
| 20260905154801 | 92 | 240 | 1.7 | 1.7 | 0.00 | 0.00 | 0.00 | 63 | 1011.3 |
| 20260905154257 | 92 | 289 | 0.9 | 1.7 | 0.00 | 0.00 | 0.00 | 63 | 1011.6 |
| 20260905153752 | 91 | 242 | 1.7 | 2.6 | 0.00 | 0.00 | 0.00 | 65 | 1011.6 |
| 20260905153248 | 91 | 221 | 0.9 | 0.9 | 0.00 | 0.00 | 0.00 | 64 | 1011.5 |
| 20260905152743 | 90 | 346 | 2.6 | 4.3 | 0.00 | 0.00 | 0.00 | 65 | 1011.6 |
| 20260905152242 | 90 | 0 | 3.5 | 4.3 | 0.00 | 0.00 | 0.00 | 64 | 1011.6 |
| 20260905151742 | 91 | 274 | 0.9 | 1.7 | 0.00 | 0.00 | 0.00 | 64 | 1011.7 |
| 20260905151238 | 90 | 208 | 1.7 | 2.6 | 0.00 | 0.00 | 0.00 | 66 | 1011.7 |
| 20260905150738 | 90 | 308 | 1.7 | 1.7 | 0.00 | 0.00 | 0.00 | 70 | 1011.6 |
| 20260905150237 | 89 | 232 | 1.7 | 1.7 | 0.00 | 0.00 | 0.00 | 69 | 1011.7 |
| 20260905145735 | 88 | 225 | 2.6 | 2.6 | 0.00 | 0.00 | 0.00 | 70 | 1011.9 |
| 20260905145231 | 88 | 351 | 3.5 | 4.3 | 0.00 | 0.00 | 0.00 | 70 | 1011.6 |
| 20260905144729 | 88 | 356 | 2.6 | 4.3 | 0.00 | 0.00 | 0.00 | 71 | 1011.6 |
| 20260905144225 | 88 | 339 | 2.6 | 2.6 | 0.00 | 0.00 | 0.00 | 71 | 1011.7 |
| 20260905143723 | 87 | 211 | 1.7 | 2.6 | 0.00 | 0.00 | 0.00 | 72 | 1011.7 |
| 20260905143223 | 87 | 318 | 3.5 | 4.3 | 0.00 | 0.00 | 0.00 | 71 | 1011.7 |
| 20260905142721 | 87 | 226 | 0.9 | 1.7 | 0.00 | 0.00 | 0.00 | 72 | 1011.6 |
| 20260905142216 | 86 | 202 | 0.9 | 0.9 | 0.00 | 0.00 | 0.00 | 74 | 1011.8 |
| 20260905141712 | 86 | 334 | 1.7 | 2.6 | 0.00 | 0.00 | 0.00 | 74 | 1011.7 |
| 20260905141208 | 86 | 234 | 1.7 | 1.7 | 0.00 | 0.00 | 0.00 | 75 | 1011.7 |
| 20260905140703 | 86 | 214 | 0.9 | 0.9 | 0.00 | 0.00 | 0.00 | 75 | 1011.5 |
| 20260905140157 | 86 | 289 | 0.9 | 1.7 | 0.00 | 0.00 | 0.00 | 76 | 1011.7 |
| 20260905135652 | 85 | 70 | 1.7 | 1.7 | 0.00 | 0.00 | 0.00 | 76 | 1011.4 |
| 20260905135148 | 85 | 321 | 1.7 | 1.7 | 0.00 | 0.00 | 0.00 | 77 | 1011.6 |
| 20260905134647 | 84 | 334 | 3.5 | 4.3 | 0.00 | 0.00 | 0.00 | 78 | 1011.1 |
| 20260905134146 | 84 | 300 | 1.7 | 1.7 | 0.00 | 0.00 | 0.00 | 79 | 1011.5 |
| 20260905133642 | 84 | 244 | 2.6 | 4.3 | 0.00 | 0.00 | 0.00 | 79 | 1011.4 |
| 20260905133142 | 84 | 203 | 0.9 | 0.9 | 0.00 | 0.00 | 0.00 | 80 | 1011.5 |
| 20260905132641 | 83 | 200 | 0.9 | 1.7 | 0.00 | 0.00 | 0.00 | 81 | 1011.7 |
| 20260905132136 | 82 | 211 | 0.9 | 1.7 | 0.00 | 0.00 | 0.00 | 82 | 1011.4 |
| 20260905131631 | 82 | 214 | 0.9 | 1.7 | 0.00 | 0.00 | 0.00 | 83 | 1011.5 |
| 20260905131126 | 82 | 199 | 0.0 | 0.9 | 0.00 | 0.00 | 0.00 | 84 | 1011.8 |
| 20260905130621 | 81 | 202 | 1.7 | 1.7 | 0.00 | 0.00 | 0.00 | 84 | 1011.7 |
| 20260905130120 | 81 | 333 | 2.6 | 2.6 | 0.00 | 0.00 | 0.00 | 85 | 1011.7 |
| 20260905125615 | 81 | 230 | 0.9 | 1.7 | 0.00 | 0.00 | 0.00 | 85 | 1011.9 |
| 20260905125111 | 80 | 231 | 2.6 | 2.6 | 0.00 | 0.00 | 0.00 | 86 | 1011.7 |
| 20260905124607 | 80 | 231 | 1.7 | 1.7 | 0.00 | 0.00 | 0.00 | 86 | 1011.6 |
| 20260905124103 | 80 | 218 | 0.9 | 0.9 | 0.00 | 0.00 | 0.00 | 87 | 1011.8 |
| 20260905123558 | 80 | 258 | 1.7 | 1.7 | 0.00 | 0.00 | 0.00 | 87 | 1011.8 |
| 20260905123055 | 79 | 203 | 0.9 | 1.7 | 0.00 | 0.00 | 0.00 | 88 | 1011.8 |
| 20260905122554 | 79 | 358 | 2.6 | 2.6 | 0.00 | 0.00 | 0.00 | 89 | 1011.8 |
| 20260905122049 | 78 | 201 | 0.0 | 0.9 | 0.00 | 0.00 | 0.00 | 90 | 1011.9 |
| 20260905121544 | 78 | 212 | 0.9 | 0.9 | 0.00 | 0.00 | 0.00 | 91 | 1011.6 |
| 20260905121039 | 77 | 279 | 1.7 | 2.6 | 0.00 | 0.00 | 0.00 | 92 | 1011.6 |
| 20260905120538 | 77 | 321 | 3.5 | 4.3 | 0.00 | 0.00 | 0.00 | 93 | 1011.8 |
| 20260905120034 | 76 | 214 | 0.0 | 0.9 | 0.00 | 0.00 | 0.00 | 94 | 1011.6 |
| 20260905115532 | 76 | 207 | 0.0 | 0.9 | 0.00 | 0.00 | 0.00 | 95 | 1011.7 |
| 20260905115027 | 76 | 204 | 0.0 | 0.0 | 0.00 | 0.00 | 0.00 | 95 | 1011.5 |
| 20260905114527 | 75 | 213 | 0.0 | 0.0 | 0.00 | 0.00 | 0.00 | 95 | 1011.5 |
| 20260905114026 | 75 | 213 | 0.0 | 0.0 | 0.00 | 0.00 | 0.00 | 95 | 1011.4 |